| time (UTC) | temp F | wind direction | speed knots | gust knots | rain 1hr in | rain 24hr in | rain mn in | humidity % | barometer mb |
| 20260507210903 | 53 | 89 | 1.7 | 3.5 | 0.00 | 0.00 | 0.00 | 84 | 1014.3 |
| 20260507210003 | 53 | 97 | 1.7 | 3.5 | 0.00 | 0.00 | 0.00 | 85 | 1014.4 |
| 20260507205403 | 53 | 109 | 0.9 | 3.5 | 0.00 | 0.00 | 0.00 | 85 | 1014.3 |
| 20260507204503 | 54 | 134 | 1.7 | 3.5 | 0.00 | 0.00 | 0.00 | 85 | 1014.3 |
| 20260507203603 | 54 | 146 | 2.6 | 6.1 | 0.00 | 0.00 | 0.00 | 86 | 1014.2 |
| 20260507202703 | 54 | 142 | 3.5 | 8.7 | 0.00 | 0.00 | 0.00 | 86 | 1014.2 |
| 20260507201803 | 54 | 161 | 3.5 | 6.1 | 0.00 | 0.00 | 0.00 | 86 | 1014.1 |
| 20260507200924 | 54 | 154 | 3.5 | 7.0 | 0.00 | 0.00 | 0.00 | 86 | 1013.9 |
| 20260507200003 | 54 | 145 | 4.3 | 7.8 | 0.00 | 0.00 | 0.00 | 86 | 1013.9 |
| 20260507195403 | 54 | 146 | 3.5 | 7.8 | 0.00 | 0.00 | 0.00 | 86 | 1013.8 |
| 20260507194503 | 54 | 140 | 2.6 | 6.1 | 0.00 | 0.00 | 0.00 | 86 | 1013.7 |
| 20260507193603 | 54 | 132 | 3.5 | 7.0 | 0.00 | 0.00 | 0.00 | 86 | 1013.5 |
| 20260507192703 | 54 | 152 | 2.6 | 6.1 | 0.00 | 0.00 | 0.00 | 86 | 1013.6 |
| 20260507191803 | 55 | 133 | 3.5 | 8.7 | 0.00 | 0.00 | 0.00 | 86 | 1013.6 |
| 20260507190903 | 55 | 128 | 3.5 | 7.0 | 0.00 | 0.00 | 0.00 | 85 | 1013.6 |
| 20260507190024 | 55 | 108 | 2.6 | 6.1 | 0.00 | 0.00 | 0.00 | 86 | 1013.6 |
| 20260507185403 | 55 | 92 | 2.6 | 7.8 | 0.00 | 0.00 | 0.00 | 87 | 1013.5 |
| 20260507184503 | 55 | 92 | 2.6 | 7.0 | 0.00 | 0.00 | 0.00 | 86 | 1013.5 |
| 20260507183603 | 55 | 89 | 3.5 | 7.0 | 0.00 | 0.00 | 0.00 | 86 | 1013.5 |
| 20260507182703 | 55 | 106 | 2.6 | 7.0 | 0.00 | 0.00 | 0.00 | 86 | 1013.6 |
| 20260507181803 | 56 | 87 | 1.7 | 5.2 | 0.00 | 0.00 | 0.00 | 80 | 1013.5 |
| 20260507180903 | 55 | 132 | 1.7 | 6.1 | 0.00 | 0.00 | 0.00 | 86 | 1013.4 |
| 20260507180003 | 55 | 173 | 1.7 | 4.3 | 0.00 | 0.00 | 0.00 | 87 | 1013.3 |
| 20260507175403 | 55 | 175 | 1.7 | 4.3 | 0.00 | 0.00 | 0.00 | 87 | 1013.4 |
| 20260507174503 | 55 | 147 | 1.7 | 6.1 | 0.00 | 0.00 | 0.00 | 87 | 1013.4 |
| 20260507173603 | 56 | 163 | 3.5 | 6.1 | 0.00 | 0.00 | 0.00 | 88 | 1013.4 |
| 20260507172703 | 56 | 175 | 3.5 | 7.8 | 0.00 | 0.00 | 0.00 | 87 | 1013.4 |
| 20260507171803 | 57 | 176 | 3.5 | 11.3 | 0.00 | 0.00 | 0.00 | 85 | 1013.4 |
| 20260507170903 | 57 | 159 | 4.3 | 7.8 | 0.00 | 0.00 | 0.00 | 90 | 1013.4 |
| 20260507170003 | 58 | 136 | 4.3 | 10.4 | 0.00 | 0.00 | 0.00 | 89 | 1013.4 |
| 20260507165403 | 58 | 124 | 4.3 | 10.4 | 0.00 | 0.00 | 0.00 | 88 | 1013.4 |
| 20260507164503 | 58 | 120 | 5.2 | 11.3 | 0.00 | 0.00 | 0.00 | 88 | 1013.4 |
| 20260507163603 | 58 | 124 | 6.1 | 11.3 | 0.00 | 0.00 | 0.00 | 88 | 1013.3 |
| 20260507162703 | 58 | 97 | 2.6 | 8.7 | 0.00 | 0.00 | 0.00 | 89 | 1013.3 |
| 20260507161803 | 58 | 98 | 3.5 | 9.6 | 0.00 | 0.00 | 0.00 | 89 | 1013.3 |
| 20260507160903 | 58 | 92 | 3.5 | 7.8 | 0.00 | 0.00 | 0.00 | 86 | 1013.3 |
| 20260507160003 | 58 | 94 | 2.6 | 7.0 | 0.00 | 0.00 | 0.00 | 89 | 1013.4 |
| 20260507155403 | 58 | 94 | 2.6 | 7.8 | 0.00 | 0.00 | 0.00 | 89 | 1013.4 |
| 20260507154503 | 58 | 103 | 4.3 | 8.7 | 0.00 | 0.00 | 0.00 | 89 | 1013.5 |
| 20260507153603 | 58 | 121 | 2.6 | 7.0 | 0.00 | 0.00 | 0.00 | 90 | 1013.4 |
| 20260507152703 | 58 | 99 | 2.6 | 8.7 | 0.00 | 0.00 | 0.00 | 87 | 1013.4 |
| 20260507151803 | 59 | 94 | 4.3 | 9.6 | 0.00 | 0.00 | 0.00 | 83 | 1013.5 |
| 20260507150903 | 60 | 120 | 3.5 | 7.0 | 0.00 | 0.00 | 0.00 | 82 | 1013.6 |
| 20260507150003 | 59 | 136 | 3.5 | 7.0 | 0.00 | 0.00 | 0.00 | 83 | 1013.7 |
| 20260507145403 | 59 | 121 | 3.5 | 7.0 | 0.00 | 0.00 | 0.00 | 83 | 1013.8 |
| 20260507144503 | 59 | 87 | 3.5 | 9.6 | 0.00 | 0.00 | 0.00 | 82 | 1013.8 |
| 20260507143624 | 59 | 99 | 4.3 | 9.6 | 0.00 | 0.00 | 0.00 | 82 | 1013.9 |
| 20260507142703 | 58 | 107 | 4.3 | 11.3 | 0.00 | 0.00 | 0.00 | 82 | 1014.0 |
| 20260507141803 | 59 | 92 | 4.3 | 11.3 | 0.00 | 0.00 | 0.00 | 81 | 1014.0 |
| 20260507140903 | 59 | 103 | 4.3 | 8.7 | 0.00 | 0.00 | 0.00 | 80 | 1014.1 |
| 20260507140024 | 58 | 99 | 4.3 | 8.7 | 0.00 | 0.00 | 0.00 | 80 | 1014.2 |
| 20260507135403 | 57 | 96 | 4.3 | 10.4 | 0.00 | 0.00 | 0.00 | 80 | 1014.2 |
| 20260507134503 | 57 | 103 | 5.2 | 11.3 | 0.00 | 0.00 | 0.00 | 80 | 1014.3 |
| 20260507133603 | 57 | 102 | 4.3 | 12.2 | 0.00 | 0.00 | 0.00 | 79 | 1014.3 |
| 20260507132724 | 57 | 102 | 4.3 | 11.3 | 0.00 | 0.00 | 0.00 | 80 | 1014.4 |
| 20260507131803 | 57 | 103 | 5.2 | 11.3 | 0.00 | 0.00 | 0.00 | 80 | 1014.5 |
| 20260507130903 | 56 | 109 | 6.1 | 12.2 | 0.00 | 0.00 | 0.00 | 80 | 1014.4 |
| 20260507130003 | 55 | 104 | 4.3 | 11.3 | 0.00 | 0.00 | 0.00 | 80 | 1014.4 |
| 20260507125403 | 54 | 100 | 6.1 | 12.2 | 0.00 | 0.00 | 0.00 | 80 | 1014.5 |
| 20260507124503 | 54 | 104 | 6.1 | 12.2 | 0.00 | 0.00 | 0.00 | 80 | 1014.5 |
| 20260507123603 | 53 | 100 | 5.2 | 11.3 | 0.00 | 0.00 | 0.00 | 80 | 1014.6 |
| 20260507122705 | 53 | 97 | 4.3 | 9.6 | 0.00 | 0.00 | 0.00 | 80 | 1014.6 |
| 20260507121803 | 53 | 93 | 4.3 | 11.3 | 0.00 | 0.00 | 0.00 | 80 | 1014.5 |
| 20260507120903 | 54 | 98 | 5.2 | 11.3 | 0.00 | 0.00 | 0.00 | 78 | 1014.5 |
| 20260507120004 | 52 | 89 | 5.2 | 11.3 | 0.00 | 0.00 | 0.00 | 80 | 1014.7 |
| 20260507115424 | 51 | 94 | 4.3 | 10.4 | 0.00 | 0.00 | 0.00 | 80 | 1014.7 |
| 20260507114503 | 51 | 88 | 4.3 | 11.3 | 0.00 | 0.00 | 0.00 | 81 | 1014.7 |
| 20260507113603 | 51 | 102 | 4.3 | 10.4 | 0.00 | 0.00 | 0.00 | 80 | 1014.6 |
| 20260507112703 | 51 | 102 | 5.2 | 11.3 | 0.00 | 0.00 | 0.00 | 80 | 1014.7 |
| 20260507111803 | 51 | 104 | 5.2 | 12.2 | 0.00 | 0.00 | 0.00 | 80 | 1014.7 |
| 20260507110924 | 51 | 101 | 5.2 | 11.3 | 0.00 | 0.00 | 0.00 | 79 | 1014.8 |
| 20260507110024 | 51 | 101 | 6.1 | 12.2 | 0.00 | 0.00 | 0.00 | 80 | 1014.8 |
| 20260507105403 | 51 | 97 | 6.1 | 13.0 | 0.00 | 0.00 | 0.00 | 80 | 1014.8 |
| 20260507104504 | 51 | 96 | 5.2 | 10.4 | 0.00 | 0.00 | 0.00 | 80 | 1014.9 |
| 20260507103603 | 52 | 86 | 4.3 | 13.0 | 0.00 | 0.00 | 0.00 | 80 | 1014.8 |
| 20260507102703 | 52 | 94 | 6.1 | 13.9 | 0.00 | 0.00 | 0.00 | 80 | 1014.8 |
| 20260507101824 | 52 | 82 | 5.2 | 11.3 | 0.00 | 0.00 | 0.00 | 80 | 1014.8 |
| 20260507100924 | 51 | 84 | 4.3 | 9.6 | 0.00 | 0.00 | 0.00 | 80 | 1014.9 |
| 20260507100003 | 50 | 87 | 4.3 | 8.7 | 0.00 | 0.00 | 0.00 | 80 | 1014.9 |
| 20260507095424 | 50 | 92 | 4.3 | 11.3 | 0.00 | 0.00 | 0.00 | 80 | 1014.9 |
| 20260507094503 | 50 | 92 | 4.3 | 11.3 | 0.00 | 0.00 | 0.00 | 80 | 1014.9 |
| 20260507093624 | 50 | 83 | 5.2 | 11.3 | 0.00 | 0.00 | 0.00 | 80 | 1014.9 |
| 20260507092703 | 50 | 90 | 5.2 | 10.4 | 0.00 | 0.00 | 0.00 | 80 | 1014.9 |
| 20260507091803 | 50 | 87 | 4.3 | 9.6 | 0.00 | 0.00 | 0.00 | 80 | 1015.0 |
| 20260507090903 | 50 | 87 | 5.2 | 10.4 | 0.00 | 0.00 | 0.00 | 80 | 1014.9 |
| 20260507090024 | 50 | 85 | 5.2 | 12.2 | 0.00 | 0.00 | 0.00 | 80 | 1014.9 |
| 20260507085424 | 50 | 101 | 6.1 | 13.0 | 0.00 | 0.00 | 0.00 | 80 | 1014.8 |
| 20260507084503 | 50 | 97 | 5.2 | 12.2 | 0.00 | 0.00 | 0.00 | 80 | 1014.9 |
| 20260507083603 | 50 | 89 | 5.2 | 13.0 | 0.00 | 0.00 | 0.00 | 80 | 1014.8 |
| 20260507082703 | 50 | 88 | 5.2 | 12.2 | 0.00 | 0.00 | 0.00 | 80 | 1014.8 |
| 20260507081803 | 50 | 92 | 6.1 | 14.8 | 0.00 | 0.00 | 0.00 | 80 | 1014.8 |
| 20260507080903 | 50 | 100 | 6.1 | 12.2 | 0.00 | 0.00 | 0.00 | 80 | 1014.9 |
| 20260507080003 | 49 | 101 | 6.1 | 12.2 | 0.00 | 0.00 | 0.00 | 80 | 1014.9 |
| 20260507075424 | 49 | 85 | 6.1 | 15.6 | 0.00 | 0.00 | 0.00 | 81 | 1014.8 |
| 20260507074503 | 49 | 91 | 6.1 | 11.3 | 0.00 | 0.00 | 0.00 | 80 | 1014.8 |
| 20260507073603 | 49 | 97 | 6.1 | 12.2 | 0.00 | 0.00 | 0.00 | 80 | 1014.7 |
| 20260507072703 | 48 | 96 | 6.1 | 13.0 | 0.00 | 0.00 | 0.00 | 81 | 1014.7 |
| 20260507071803 | 48 | 98 | 5.2 | 12.2 | 0.00 | 0.00 | 0.00 | 81 | 1014.7 |
| 20260507070924 | 48 | 93 | 5.2 | 12.2 | 0.00 | 0.00 | 0.00 | 79 | 1014.6 |
| 20260507070005 | 48 | 87 | 4.3 | 9.6 | 0.00 | 0.00 | 0.00 | 81 | 1014.5 |
| 20260507065403 | 47 | 101 | 4.3 | 10.4 | 0.00 | 0.00 | 0.00 | 81 | 1014.7 |
| 20260507064503 | 47 | 91 | 4.3 | 12.2 | 0.00 | 0.00 | 0.00 | 81 | 1014.6 |
| 20260507063603 | 46 | 80 | 4.3 | 10.4 | 0.00 | 0.00 | 0.00 | 82 | 1014.7 |
| 20260507062703 | 46 | 95 | 5.2 | 10.4 | 0.00 | 0.00 | 0.00 | 82 | 1014.7 |
| 20260507061803 | 46 | 89 | 4.3 | 11.3 | 0.00 | 0.00 | 0.00 | 82 | 1014.7 |
| 20260507060924 | 46 | 94 | 4.3 | 11.3 | 0.00 | 0.00 | 0.00 | 81 | 1014.7 |
| 20260507060003 | 45 | 83 | 4.3 | 10.4 | 0.00 | 0.00 | 0.00 | 82 | 1014.7 |
| 20260507055424 | 45 | 78 | 4.3 | 8.7 | 0.00 | 0.00 | 0.00 | 83 | 1014.5 |
| 20260507054503 | 45 | 86 | 5.2 | 11.3 | 0.00 | 0.00 | 0.00 | 83 | 1014.6 |
| 20260507053603 | 45 | 91 | 4.3 | 9.6 | 0.00 | 0.00 | 0.00 | 83 | 1014.5 |
| 20260507052703 | 45 | 88 | 4.3 | 9.6 | 0.00 | 0.00 | 0.00 | 84 | 1014.4 |
| 20260507051803 | 45 | 80 | 4.3 | 8.7 | 0.00 | 0.00 | 0.00 | 80 | 1014.4 |
| 20260507050903 | 45 | 86 | 4.3 | 11.3 | 0.00 | 0.00 | 0.00 | 84 | 1014.4 |
| 20260507050024 | 45 | 85 | 5.2 | 10.4 | 0.00 | 0.00 | 0.00 | 84 | 1014.3 |
| 20260507045403 | 45 | 81 | 4.3 | 10.4 | 0.00 | 0.00 | 0.00 | 84 | 1014.4 |
| 20260507044503 | 45 | 83 | 4.3 | 10.4 | 0.00 | 0.00 | 0.00 | 85 | 1014.5 |
| 20260507043603 | 45 | 83 | 5.2 | 12.2 | 0.00 | 0.00 | 0.00 | 85 | 1014.4 |
| 20260507042703 | 45 | 81 | 4.3 | 11.3 | 0.00 | 0.00 | 0.00 | 85 | 1014.5 |
| 20260507041803 | 45 | 92 | 6.1 | 13.0 | 0.00 | 0.00 | 0.00 | 85 | 1014.5 |
| 20260507040903 | 45 | 88 | 5.2 | 10.4 | 0.00 | 0.00 | 0.00 | 85 | 1014.5 |
| 20260507040003 | 45 | 80 | 4.3 | 13.0 | 0.00 | 0.00 | 0.00 | 84 | 1014.5 |
| 20260507035403 | 45 | 86 | 5.2 | 12.2 | 0.00 | 0.00 | 0.00 | 85 | 1014.7 |
| 20260507034503 | 45 | 79 | 4.3 | 11.3 | 0.00 | 0.00 | 0.00 | 85 | 1014.5 |
| 20260507033603 | 45 | 86 | 4.3 | 10.4 | 0.00 | 0.00 | 0.00 | 85 | 1014.5 |
| 20260507032703 | 45 | 89 | 4.3 | 11.3 | 0.00 | 0.00 | 0.00 | 85 | 1014.6 |
| 20260507031803 | 45 | 87 | 5.2 | 11.3 | 0.00 | 0.00 | 0.00 | 86 | 1014.6 |
| 20260507030903 | 46 | 74 | 3.5 | 10.4 | 0.00 | 0.00 | 0.00 | 83 | 1014.5 |
| 20260507030003 | 45 | 75 | 3.5 | 10.4 | 0.00 | 0.00 | 0.00 | 85 | 1014.6 |
| 20260507025403 | 45 | 74 | 3.5 | 10.4 | 0.00 | 0.00 | 0.00 | 85 | 1014.7 |
| 20260507024503 | 46 | 79 | 3.5 | 10.4 | 0.00 | 0.00 | 0.00 | 85 | 1014.7 |
| 20260507023603 | 46 | 82 | 3.5 | 9.6 | 0.00 | 0.00 | 0.00 | 85 | 1014.8 |
| 20260507022703 | 46 | 81 | 3.5 | 9.6 | 0.00 | 0.00 | 0.00 | 85 | 1014.9 |
| 20260507021803 | 46 | 75 | 3.5 | 7.8 | 0.00 | 0.00 | 0.00 | 82 | 1015.0 |
| 20260507020924 | 46 | 82 | 4.3 | 9.6 | 0.00 | 0.00 | 0.00 | 85 | 1014.8 |
| 20260507020003 | 46 | 81 | 4.3 | 10.4 | 0.00 | 0.00 | 0.00 | 85 | 1014.8 |
| 20260507015424 | 46 | 80 | 5.2 | 10.4 | 0.00 | 0.00 | 0.00 | 86 | 1014.9 |
| 20260507014503 | 46 | 87 | 5.2 | 12.2 | 0.00 | 0.00 | 0.00 | 86 | 1014.8 |
| 20260507013603 | 46 | 84 | 5.2 | 11.3 | 0.00 | 0.00 | 0.00 | 86 | 1014.9 |
| 20260507012703 | 46 | 72 | 3.5 | 9.6 | 0.00 | 0.00 | 0.00 | 86 | 1014.7 |
| 20260507011824 | 46 | 82 | 4.3 | 12.2 | 0.00 | 0.00 | 0.00 | 82 | 1014.8 |
| 20260507010903 | 46 | 84 | 4.3 | 10.4 | 0.00 | 0.00 | 0.00 | 85 | 1014.8 |
| 20260507010003 | 46 | 77 | 4.3 | 10.4 | 0.00 | 0.00 | 0.00 | 86 | 1014.7 |
| 20260507005403 | 46 | 74 | 4.3 | 9.6 | 0.00 | 0.00 | 0.00 | 86 | 1014.8 |
| 20260507004524 | 46 | 71 | 4.3 | 11.3 | 0.00 | 0.00 | 0.00 | 86 | 1014.8 |
| 20260507003603 | 46 | 65 | 3.5 | 7.8 | 0.00 | 0.00 | 0.00 | 86 | 1014.9 |
| 20260507002703 | 46 | 63 | 3.5 | 8.7 | 0.00 | 0.00 | 0.00 | 87 | 1014.9 |
| 20260507001803 | 48 | 72 | 3.5 | 8.7 | 0.00 | 0.00 | 0.00 | 87 | 1014.9 |
| 20260507000903 | 47 | 56 | 3.5 | 8.7 | 0.00 | 0.00 | 0.00 | 87 | 1014.9 |
| 20260507000003 | 46 | 59 | 3.5 | 9.6 | 0.00 | 0.00 | 0.00 | 86 | 1015.0 |
| 20260506235403 | 46 | 62 | 3.5 | 10.4 | 0.00 | 0.00 | 0.00 | 87 | 1015.0 |
| 20260506234503 | 46 | 54 | 4.3 | 10.4 | 0.00 | 0.00 | 0.00 | 87 | 1014.9 |
| 20260506233603 | 46 | 54 | 3.5 | 10.4 | 0.00 | 0.00 | 0.00 | 87 | 1014.9 |
| 20260506232724 | 47 | 55 | 4.3 | 12.2 | 0.00 | 0.00 | 0.00 | 87 | 1014.9 |
| 20260506231803 | 47 | 58 | 4.3 | 11.3 | 0.00 | 0.00 | 0.00 | 87 | 1014.9 |
| 20260506230903 | 47 | 58 | 3.5 | 9.6 | 0.00 | 0.00 | 0.00 | 85 | 1014.9 |
| 20260506230004 | 47 | 52 | 3.5 | 9.6 | 0.00 | 0.00 | 0.00 | 87 | 1015.1 |
| 20260506225403 | 47 | 54 | 3.5 | 9.6 | 0.00 | 0.00 | 0.00 | 88 | 1015.0 |
| 20260506224503 | 47 | 50 | 3.5 | 7.0 | 0.00 | 0.00 | 0.00 | 88 | 1015.0 |
| 20260506223603 | 47 | 43 | 2.6 | 7.8 | 0.00 | 0.00 | 0.00 | 88 | 1015.0 |
| 20260506222703 | 47 | 48 | 2.6 | 8.7 | 0.00 | 0.00 | 0.00 | 88 | 1015.1 |
| 20260506221803 | 47 | 46 | 3.5 | 9.6 | 0.00 | 0.00 | 0.00 | 88 | 1014.9 |
| 20260506220903 | 48 | 48 | 3.5 | 8.7 | 0.00 | 0.01 | 0.00 | 87 | 1014.9 |
| 20260506220003 | 48 | 52 | 2.6 | 7.8 | 0.00 | 0.01 | 0.00 | 89 | 1014.9 |
| 20260506215403 | 48 | 55 | 2.6 | 7.8 | 0.00 | 0.01 | 0.00 | 90 | 1014.8 |
| 20260506214503 | 48 | 49 | 2.6 | 7.8 | 0.00 | 0.01 | 0.00 | 90 | 1014.8 |
| 20260506213603 | 49 | 48 | 2.6 | 7.8 | 0.00 | 0.01 | 0.00 | 90 | 1014.7 |
| 20260506212703 | 49 | 49 | 2.6 | 7.8 | 0.00 | 0.01 | 0.00 | 90 | 1014.7 |
| 20260506211824 | 50 | 45 | 2.6 | 6.1 | 0.00 | 0.01 | 0.00 | 83 | 1014.7 |